STARLINK-11600, 63114

Orbit data source: Space-Track

STARLINK-11600, 63114 is a payload satellite owned by SpaceX/Seattle (US) in LEO that was launched on Thu, 27 Feb 2025 UTC via an FALCON 9 launch vehicle from the Air Force Eastern Test Range (AFETR). Payload-class satellites include a variety of spacecraft equipped with specific instruments for various scientific and technological missions. These include communications satellites like Starlink; space stations such as the ISS; scientific satellites like the Hubble; Earth observation satellites from companies like Planet Labs, Umbra, and HawkEye 360; GPS; miniature CubeSats for education and research; and military/defense satellites.

Loading next visibility...
Identifier
63114, 2025-039L
Orbit
LEO
Country
Flag of USUS
Related business
Manufacturer
SpaceX/Seattle
Mission
Operational Commercial Communications
Bus & Motor
STARLINK V2MD, Unknown motor
Mass
960 kg wet, ~910 kg dry
Launch date (UTC)
2025-02-27 (1 year ago)
Launch vehicle
FALCON 9
Launch site
Air Force Eastern Test Range (AFETR)
Object type
Payload
Rocket body
Debris
Shape & HBR
Box + 2 Pan, 18.1 m
Radar Cross Section
36.964 m², Large (>1 m²)

Expand to show TLE details & history
Last TLE update: 20 hours ago

TLE from 20 hours ago
0 STARLINK-11600
1 63114U 25039L   26119.53340890  .00324354  00000-0  24183-2 0  9996
2 63114  42.9988 290.2122 0002655 260.6192  99.4375 15.70993373 67613
Epoch: 2026-04-29T12:48Z
TLE epoch observation values (Epoch: 2026-04-29T12:48:06.528Z)
Latitude
-0.00008°
Longitude
-119.30808°
Altitude
356.121 km
Speed
7.697 km/s
True Right ascension
19h 20m 50s
True Declination
0° 00' 00"
Sunlit
Object was in daylight at epoch
Visualization orbit readout
Latitude
Unknown
Longitude
Unknown
Altitude
Unknown
Speed
Unknown
Apparent Right ascension
Unknown
Apparent Declination
Unknown
Sunlit
N/A
Visualization observer readout
Local Sidereal Time
16:39:35
Azimuth
Unknown
Elevation
Unknown
Doppler factor
Unknown
Orbital elements
Apogee altitude
359.827 km
Perigee altitude
356.25 km
Semi-major axis
6,736.176 km
Eccentricity
0.00027
Inclination
42.9988°
RAAN
290.2122°
Arg. of periapsis
260.6192°
True anomaly
99.46751°
Mean anomaly
99.4375°
Eccentric anomaly
99.45251°
Mean motion
3.92575 °/min
Orbital period
91.7 mins
BSTAR
0.0024183
Loading maneuver chart data...
Computing Atmospheric mass density...
Loading historical data...
Loading historical data...
Loading historical data...
Loading historical data...
Loading historical data...
Loading historical data...
Loading historical data...

Documentation

Showing up to 5 results
|